This is the latest recevied weather packets stored in our database for station/object EB2EMZ-14. If no packets are shown the sender has not sent any weather packets the latest 10 day(s).
| Time | Temp. | Humidity | Pressure | Rain* | Wind** | Luminosity | Snow |
|---|---|---|---|---|---|---|---|
| 1777536012 | 26.67° C | 50% | 1014.3 hPa | 0 mm | - | 0 W/m² | - |
| 1777535711 | 26.67° C | 52% | 1014.5 hPa | 0 mm | - | 0 W/m² | - |
| 1777535413 | 26.67° C | 52% | 1014.5 hPa | 0 mm | - | 0 W/m² | - |
| 1777535111 | 26.11° C | 54% | 1014.4 hPa | 0 mm | - | 0 W/m² | - |
| 1777534812 | 25.56° C | 56% | 1014.3 hPa | 0 mm | - | 0 W/m² | - |
| 1777534512 | 25° C | 57% | 1014.3 hPa | 0 mm | - | 0 W/m² | - |
| 1777534212 | 25° C | 58% | 1014.3 hPa | 0 mm | - | 0 W/m² | - |
| 1777533913 | 24.44° C | 61% | 1014.2 hPa | 0 mm | - | 0 W/m² | - |
| 1777533612 | 23.89° C | 63% | 1014.1 hPa | 0 mm | - | 0 W/m² | - |
| 1777533312 | 23.33° C | 63% | 1014 hPa | 0 mm | - | 0 W/m² | - |
| 1777533012 | 22.22° C | 69% | 1013.9 hPa | 0 mm | - | 0 W/m² | - |
| 1777532712 | 21.11° C | 73% | 1013.9 hPa | 0 mm | - | 0 W/m² | - |
| 1777532412 | 20.56° C | 78% | 1013.7 hPa | 0 mm | - | 0 W/m² | - |
| 1777532112 | 19.44° C | 86% | 1013.7 hPa | 0 mm | - | 0 W/m² | - |
| 1777531811 | 17.78° C | 92% | 1013.8 hPa | 0 mm | - | 0 W/m² | - |
| 1777531512 | 16.67° C | 93% | 1013.6 hPa | 0 mm | - | 0 W/m² | - |
| 1777531212 | 15° C | 94% | 1013.9 hPa | 0 mm | - | 0 W/m² | - |
| 1777530911 | 13.33° C | 95% | 1013.9 hPa | 0 mm | - | 0 W/m² | - |
| 1777530611 | 11.67° C | 94% | 1013.8 hPa | 0 mm | - | 0 W/m² | - |
| 1777530312 | 10.56° C | 94% | 1013.7 hPa | 0 mm | - | 0 W/m² | - |
| 1777530011 | 9.44° C | 93% | 1013.7 hPa | 0 mm | - | 0 W/m² | - |
| 1777529711 | 9.44° C | 93% | 1013.8 hPa | 0 mm | - | 0 W/m² | - |
| 1777529412 | 9.44° C | 93% | 1013.9 hPa | 0 mm | - | 0 W/m² | - |
| 1777529111 | 8.89° C | 93% | 1013.9 hPa | 0 mm | - | 0 W/m² | - |
| 1777528811 | 8.89° C | 93% | 1013.8 hPa | 0 mm | - | 0 W/m² | - |
* Rain latest hour (hover to see other rain measurements)
** Current wind speed in m/s (hover to see current wind gust speed)